Regional Weather Roundup
Issued by NWS

Home | Current Version | Previous Version | Graphics & Text | Print | Product List | Glossary On
Versions: 1 2 3 4 5 6 7 8 9 10 11 12 13 14 15 16 17 18 19 20 21 22 23 24 25 26 27 28 29 30 31 32 33 34 35 36 37 38 39 40 41 42 43 44 45 46 47 48 49 50
000
ASUS43 KMPX 272201
RWRMN
WEATHER ROUNDUP FOR MINNESOTA
NATIONAL WEATHER SERVICE TWIN CITIES/CHANHASSEN MN
500 PM CDT THU JUL 27 2017


NOTE: "FAIR" INDICATES FEW OR NO CLOUDS BELOW 12,000 FEET WITH NO
SIGNIFICANT WEATHER AND/OR OBSTRUCTIONS TO VISIBILITY. N/A MEANS
CURRENT SKY AND/OR WEATHER CONDITIONS ARE NOT AVAILABLE.

MNZ060>063-068>070-272300-
   Twin Cities Metro

CITY           SKY/WX    TMP DP  RH WIND       PRES   REMARKS
TWIN CITIES    PTSUNNY   85  56  37 N8        30.03F
ST PAUL        MOSUNNY   84  59  42 NE9       30.03F
CRYSTAL        MOSUNNY   84  56  38 NE10      30.02F
BLAINE         MOSUNNY   86  55  35 N10       30.04F
LAKEVILLE      MOSUNNY   81  61  50 NE6       30.04S
EDEN PRAIRIE   SUNNY     85  59  41 N9        30.02F
SOUTH ST PAUL  MOSUNNY   84  55  37 NE8       30.03S
LAKE ELMO      FAIR      82  59  44 NE7       30.05S
$$
MNZ001>005-007-008-013>017-022>024-027-028-272300-
   Northwest Minnesota

CITY           SKY/WX    TMP DP  RH WIND       PRES   REMARKS
BEMIDJI        LGT RAIN  77  57  49 NW7       30.09F
HALLOCK        CLOUDY    84  55  37 NW5       30.06S
ROSEAU         SUNNY     73  64  73 NE24      30.09R
WARROAD        CLOUDY    70  61  73 SW5       30.09F
CROOKSTON      MOSUNNY   81  61  50 SW5       30.08S
FOSSTON        SUNNY     82  59  44 CALM      30.10F
DETROIT LAKES  SUNNY     79  59  50 N5        30.11S
MOORHEAD       MOSUNNY   82  54  36 CALM      30.07F
PARK RAPIDS    SUNNY     83  56  39 N10       30.08F
MAHNOMEN       FAIR      80  58  48 NW5       30.09S
$$
MNZ006-009>011-018-025>026-272300-
   North Central Minnesota

CITY           SKY/WX    TMP DP  RH WIND       PRES   REMARKS
BAUDETTE       SUNNY     82  56  40 N7        30.08S
FLAG ISLAND    SUNNY     82  64  54 CALM      30.07S HAZE
INTL FALLS     MOSUNNY   83  57  41 N5        30.06F
WASKISH        CLOUDY    79  64  61 W7        30.09F
BIG FORK       MOSUNNY   81  57  44 N3        30.08F
LONGVILLE      PTSUNNY   81  57  44 W6        30.08F
GRAND RAPIDS   SUNNY     77  59  53 SW5       30.09F
CRANE LAKE     MOSUNNY   79  55  44 CALM      30.08F
ORR            MOSUNNY   82  52  34 CALM      30.05F
COOK             N/A     79  57  47 E3        30.08F
WALKER         FAIR      80  56  44 CALM      30.08F
$$
MNZ012-019>021-037-272300-
   Northeast Minnesota

CITY           SKY/WX    TMP DP  RH WIND       PRES   REMARKS
DULUTH         MOSUNNY   76  59  55 SE8       30.08F
ELY            MOSUNNY   75  54  46 CALM      30.07F
HIBBING        SUNNY     80  54  40 NW6       30.07F
EVELETH        SUNNY     78  43  28 N3        30.08F
DULUTH HARBOR  SUNNY     68  61  77 E3        30.07F
TWO HARBORS    PTSUNNY   77  63  61 SE3       30.06F
SILVER BAY     PTSUNNY   75  57  53 E7        30.07S
GRAND MARAIS     N/A     66  53  63 E7        30.08F
G MARAIS ARPRT PTSUNNY   66  48  52 SE6       30.12F
$$
MNZ029>031-032-039>041-046>048-054>057-064-272300-
   West Central Minnesota

CITY           SKY/WX    TMP DP  RH WIND       PRES   REMARKS
FERGUS FALLS   MOSUNNY   81  61  50 NW3       30.06S
WHEATON        MOSUNNY   81  55  41 E6        30.08F
MORRIS         SUNNY     84  55  37 NE5       30.06F
ALEXANDRIA     SUNNY     81  57  43 CALM      30.09F
ELBOW LAKE     FAIR      80  58  47 CALM      30.08F
WADENA         PTSUNNY   79  61  53 N6        30.08S
GLENWOOD       SUNNY     82  55  39 CALM      30.08F
APPLETON       SUNNY     82  55  39 NE6       30.06F
BENSON         SUNNY     84  55  37 CALM      30.08F
ORTONVILLE     MOSUNNY   82  57  42 CALM        N/A
MADISON        MOSUNNY   84  61  45 N6        30.07F
WILLMAR        FAIR      82  59  44 N6        30.07F
$$
MNZ033>034-036-042>043-049>051-058-059-272300-
   Central Minnesota

CITY           SKY/WX    TMP DP  RH WIND       PRES   REMARKS
ST CLOUD       MOSUNNY   83  59  44 VRB6      30.05F
SAUK CENTRE    FAIR      81  58  45 N6        30.07F
PAYNESVILLE    MOSUNNY   84  55  37 N8        30.07F
AITKIN         MOSUNNY   79  61  53 N5        30.06F
PINE RIVER     SUNNY     81  59  47 N9        30.11S
BRAINERD       SUNNY     82  58  43 VRB5      30.07F
STAPLES        MOSUNNY   82  54  36 NW5       30.07F
LONG PRAIRIE   FAIR      79  59  50 CALM      30.08F
LITTLE FALLS   SUNNY     81  54  39 CALM      30.06F
LITCHFIELD     SUNNY     84  61  45 NE6       30.05F
BUFFALO        SUNNY     83  54  36 N3        30.05F
MAPLE LAKE     MOSUNNY   84  59  42 NE7       30.06F
HUTCHINSON     CLOUDY    80  62  54 NE6       30.07F
$$
MNZ037-044-045-052-053-272300-
   East Central Minnesota

CITY           SKY/WX    TMP DP  RH WIND       PRES   REMARKS
PRINCETON      MOSUNNY   84  57  39 CALM      30.05F
MORA           MOSUNNY   79  55  44 N3        30.07F
CAMBRIDGE      MOSUNNY   84  63  48 NW5       30.04F
RUSH CITY      MOSUNNY   82  58  45 NW5       30.05F
MOOSE LAKE     SUNNY     81  59  47 CALM      30.04F
HINCKLEY       FAIR      81  59  47 NE3       30.05F
CLOQUET        MOSUNNY   75  57  53 E5        30.08S
MCGREGOR       PTSUNNY   81  61  50 W8        30.07F
$$
MNZ071>073-080-081-089-090-097-098-272300-
   Southwest Minnesota

CITY           SKY/WX    TMP DP  RH WIND       PRES   REMARKS
MONTEVIDEO     SUNNY     88  63  42 N6        30.07F
CANBY          MOSUNNY   83  57  41 N8        30.08F
MARSHALL       SUNNY     80  62  54 NE6       30.07F
REDWOOD FALLS  SUNNY     82  58  43 N6        30.05F
OLIVIA         MOSUNNY   81  59  47 N7        30.06F
PIPESTONE      SUNNY     81  57  44 N5        30.09F
WINDOM         SUNNY     79  59  50 N9        30.07F
WORTHINGTON    MOSUNNY   80  61  52 N9        30.08F
JACKSON        SUNNY     79  61  53 NE7       30.07F
TRACY          SUNNY     81  62  53 NE10      30.08F
SLAYTON        RAIN      79  49  35 N7        30.10F
$$
MNZ065>067-074>077-082>085-091>093-272300-
   South Central Minnesota

CITY           SKY/WX    TMP DP  RH WIND       PRES   REMARKS
MANKATO        SUNNY     81  60  48 N6        30.05F
NEW ULM        MOSUNNY   82  55  39 NE9       30.05F
ST JAMES       MOSUNNY   79  63  57 N6        30.06F
FAIRMONT       SUNNY     81  62  52 N10       30.05F
GLENCOE        SUNNY     82  64  54 N6        30.05F
FARIBAULT      MOSUNNY   79  63  57 N5        30.04F
OWATONNA       SUNNY     82  63  51 N10       30.04F
WASECA         MOSUNNY   77  63  61 N7        30.06F
ALBERT LEA     MOSUNNY   81  64  57 NE10      30.04F
$$
MNZ078>079-086>088-094>096-272300-
   Southeast Minnesota

CITY           SKY/WX    TMP DP  RH WIND       PRES   REMARKS
ROCHESTER      MOSUNNY   80  62  54 NE14      30.04F
RED WING       SUNNY     84  55  37 N7        30.02S
STANTON        SUNNY     82  61  48 NE6       30.02F
DODGE CENTER   SUNNY     81  63  54 N7        30.05F
WINONA         SUNNY     81  61  50 N7        30.01F
AUSTIN         MOSUNNY   82  63  51 N12       30.03F
PRESTON        MOSUNNY   79  61  54 N10       30.04S
$$
ABBREVIATIONS USED IN REMARKS
   TC - TEMPERATURES IN CELSIUS
  WCI - WIND CHILL INDEX
   HX - HEAT INDEX
  VSB - VISIBILITY
$$




USA.gov is the U.S. government's official web portal to all federal, state and local government web resources and services.